{"data":{"norad_id":43751,"intl_designator":"2018-097A","name":"COSMOS 2530 (RODNIK-S *)","alt_names":[],"object_type":"PAYLOAD","status":"ACTIVE","operator":null,"country":"CIS","launch_date":"2018-11-30","launch_site_code":"PLMSC","launch_vehicle":null,"mission":null,"orbit_class":"UNKNOWN","rcs_meters":null,"size_class":null,"mass_kg":null,"dimensions":null,"purposes":[],"wikipedia_slug":null,"has_3d_model":false,"image_url":null,"decayed_at":null,"tle_current":{"epoch":"2026-09-20T04:51:46.730880Z","epoch_age_seconds":80410,"freshness":"FRESH","line1":"1 43751U 18097A   26263.20262420  .00000080  00000+0  50565-3 0  9993","line2":"2 43751  82.5180 163.3293 0018645 185.7109 174.3761 12.42883568354095","mean_motion":12.42883568,"eccentricity":0.0018645,"inclination_deg":82.518,"raan_deg":163.3293,"arg_perigee_deg":185.7109,"mean_anomaly_deg":174.3761,"bstar":0.00050565,"rev_number":35409,"period_min":115.85960560386,"perigee_km":1479.7246704365,"apogee_km":1509.0813721759,"semimajor_km":7872.5400213062,"source":"CELESTRAK","updated_at":"2026-09-20T09:00:14.398745Z"}}}